Tracking 28799 objects as of 18-Apr-2024
HD Live streaming from Space Station
objects crossing your sky now

SL-8 DEB

Track SL-8 DEB now!
10-day predictions


NORAD ID: 25563
Int'l Code: 1990-111D
Perigee: 749.1 km
Apogee: 778.1 km
Inclination: 74.0 °
Period: 100.0 minutes
Semi major axis: 7134 km
RCS: 0.0108 m2 (small)
Launch date: December 10, 1990
Source: Commonwealth of Independent States (former USSR) (CIS)
Launch site: PLESETSK MISSILE AND SPACE COMPLEX (PKMTR)

Note: This is SATELLITE DEBRIS
Your satellite tracking list
Your tracking list is empty




NASA's NSSDC Master Catalog

Two Line Element Set (TLE):
1 25563U 90111D   24108.34080627  .00003056  00000-0  96361-3 0  9990
2 25563  74.0477 301.0294 0020377 227.5436 199.5495 14.40619989744388
Source of the keplerian elements: AFSPC